| time (UTC) | temp F | wind direction | speed knots | gust knots | rain 1hr in | rain 24hr in | rain mn in | humidity % | barometer mb |
| 20260503183000 | 54 | 278 | 6.1 | 16.5 | 0.00 | 0.00 | 0.00 | 45 | 1012.3 |
| 20260503181500 | 55 | 235 | 6.1 | 12.2 | 0.00 | 0.00 | 0.00 | 45 | 1012.4 |
| 20260503180006 | 54 | 262 | 5.2 | 11.3 | 0.00 | 0.00 | 0.00 | 45 | 1012.4 |
| 20260503174500 | 53 | 269 | 4.3 | 11.3 | 0.00 | 0.00 | 0.00 | 44 | 1012.5 |
| 20260503173000 | 54 | 289 | 5.2 | 13.0 | 0.00 | 0.00 | 0.00 | 50 | 1012.7 |
| 20260503171501 | 53 | 238 | 5.2 | 12.2 | 0.00 | 0.00 | 0.00 | 49 | 1012.8 |
| 20260503081459 | 34 | 223 | 0.0 | 0.0 | 0.00 | 0.00 | 0.00 | 89 | 1014.6 |
| 20260503071501 | 36 | 226 | 0.0 | 1.7 | 0.00 | 0.00 | 0.00 | 86 | 1014.6 |
| 20260503054458 | 38 | 244 | 0.0 | 1.7 | 0.00 | 0.00 | 0.00 | 80 | 1014.8 |
| 20260503052958 | 39 | 244 | 0.0 | 0.0 | 0.00 | 0.00 | 0.00 | 80 | 1014.9 |
| 20260503051459 | 39 | 244 | 0.0 | 0.0 | 0.00 | 0.00 | 0.00 | 80 | 1015.2 |
| 20260503050001 | 40 | 236 | 0.0 | 2.6 | 0.00 | 0.00 | 0.00 | 80 | 1015.3 |
| 20260503044500 | 40 | 225 | 0.0 | 1.7 | 0.00 | 0.00 | 0.00 | 80 | 1015.4 |
| 20260503041458 | 40 | 267 | 0.9 | 3.5 | 0.00 | 0.00 | 0.00 | 79 | 1015.3 |
| 20260503040007 | 40 | 274 | 0.9 | 2.6 | 0.00 | 0.00 | 0.00 | 79 | 1015.5 |
| 20260503034502 | 41 | 270 | 0.9 | 3.5 | 0.00 | 0.00 | 0.00 | 78 | 1015.5 |
| 20260503033002 | 41 | 261 | 0.9 | 4.3 | 0.00 | 0.00 | 0.00 | 79 | 1015.5 |
| 20260503031502 | 41 | 239 | 1.7 | 3.5 | 0.00 | 0.00 | 0.00 | 79 | 1015.5 |
| 20260503030006 | 41 | 232 | 1.7 | 5.2 | 0.00 | 0.00 | 0.00 | 79 | 1015.6 |
| 20260503024501 | 41 | 238 | 1.7 | 6.1 | 0.00 | 0.00 | 0.00 | 78 | 1015.7 |
| 20260503023001 | 41 | 236 | 0.9 | 6.1 | 0.00 | 0.00 | 0.00 | 78 | 1015.9 |
| 20260503021501 | 41 | 265 | 0.9 | 4.3 | 0.00 | 0.00 | 0.00 | 77 | 1016.1 |
| 20260503020007 | 41 | 246 | 1.7 | 6.1 | 0.00 | 0.00 | 0.00 | 77 | 1016.0 |
| 20260503014501 | 41 | 251 | 0.9 | 3.5 | 0.00 | 0.00 | 0.00 | 77 | 1016.0 |
| 20260503013001 | 41 | 251 | 0.9 | 2.6 | 0.00 | 0.00 | 0.00 | 76 | 1015.9 |
| 20260503011501 | 41 | 220 | 0.9 | 5.2 | 0.00 | 0.00 | 0.00 | 76 | 1015.9 |
| 20260503010004 | 42 | 244 | 0.9 | 2.6 | 0.00 | 0.00 | 0.00 | 76 | 1015.9 |
| 20260503004501 | 42 | 201 | 1.7 | 3.5 | 0.00 | 0.00 | 0.00 | 75 | 1015.7 |
| 20260503001501 | 42 | 263 | 1.7 | 6.1 | 0.00 | 0.00 | 0.00 | 75 | 1015.5 |
| 20260503000005 | 42 | 240 | 1.7 | 5.2 | 0.00 | 0.00 | 0.00 | 75 | 1015.3 |
| 20260502234502 | 42 | 277 | 1.7 | 7.0 | 0.00 | 0.00 | 0.00 | 74 | 1015.4 |
| 20260502233001 | 42 | 240 | 1.7 | 7.0 | 0.00 | 0.00 | 0.00 | 75 | 1015.4 |
| 20260502231502 | 42 | 251 | 1.7 | 6.1 | 0.00 | 0.00 | 0.00 | 75 | 1015.3 |
| 20260502230004 | 42 | 209 | 2.6 | 5.2 | 0.00 | 0.00 | 0.00 | 75 | 1015.3 |
| 20260502224501 | 42 | 244 | 2.6 | 5.2 | 0.00 | 0.00 | 0.00 | 75 | 1015.3 |
| 20260502223001 | 42 | 258 | 3.5 | 7.0 | 0.00 | 0.00 | 0.00 | 75 | 1015.3 |
| 20260502221501 | 42 | 268 | 4.3 | 10.4 | 0.00 | 0.00 | 0.00 | 73 | 1015.3 |
| 20260502220007 | 42 | 279 | 2.6 | 8.7 | 0.00 | 0.00 | 0.00 | 73 | 1015.3 |
| 20260502214501 | 43 | 268 | 4.3 | 9.6 | 0.00 | 0.02 | 0.00 | 72 | 1015.2 |
| 20260502213001 | 43 | 224 | 2.6 | 7.8 | 0.00 | 0.02 | 0.00 | 71 | 1015.1 |
| 20260502211501 | 44 | 269 | 3.5 | 11.3 | 0.00 | 0.02 | 0.00 | 69 | 1015.2 |
| 20260502210004 | 44 | 266 | 3.5 | 7.8 | 0.00 | 0.02 | 0.00 | 64 | 1015.0 |
| 20260502203001 | 44 | 262 | 2.6 | 7.0 | 0.00 | 0.03 | 0.00 | 66 | 1015.0 |
| 20260502201501 | 45 | 241 | 2.6 | 8.7 | 0.00 | 0.03 | 0.00 | 66 | 1015.1 |
| 20260502200006 | 45 | 265 | 4.3 | 10.4 | 0.00 | 0.03 | 0.00 | 65 | 1015.1 |
| 20260502194501 | 45 | 337 | 4.3 | 8.7 | 0.00 | 0.05 | 0.00 | 66 | 1015.3 |
| 20260502193001 | 45 | 355 | 4.3 | 8.7 | 0.00 | 0.05 | 0.00 | 65 | 1015.3 |
| 20260502191501 | 45 | 271 | 4.3 | 9.6 | 0.00 | 0.05 | 0.00 | 66 | 1015.5 |
| 20260502190005 | 45 | 280 | 4.3 | 9.6 | 0.00 | 0.05 | 0.00 | 64 | 1015.4 |
| 20260502184502 | 45 | 279 | 4.3 | 11.3 | 0.00 | 0.06 | 0.00 | 62 | 1015.4 |